GSAT-N2 (GSAT-20)

Last updated on Wed Oct 29 2025 00:02:51 GMT+0000 (Coordinated Universal Time)

1 62028U 24214A 25301.41424899 -.00000010 00000+0 00000+0 0 9993 2 62028 0.0902 88.3300 0002567 243.2509 282.5749 1.00272679 3574
UTC large
Height (km)
Speed (km/s)
/
Latitude / Longitude
Inclination (degrees)
Orbital Period (minutes)
Azimuth
Elevation
Range (km)
Doppler Factor

Next 0 passes for location: London (51.5072 / 0.1276)

Sorry there are no passes over London.